Regional Weather Roundup
Issued by NWS Jackson, KY

Home | Current Version | Previous Version | Graphics & Text | Print | Product List | Glossary On
Versions: 1 2 3 4 5 6 7 8 9 10 11 12 13 14 15 16 17 18 19 20 21 22 23 24 25 26 27 28 29 30 31 32 33 34 35 36 37 38 39 40 41 42 43 44 45 46 47 48 49 50
000
ASUS43 KJKL 280119
RWRJKL

EAST KENTUCKY HOURLY WEATHER ROUNDUP
NATIONAL WEATHER SERVICE JACKSON KY
900 PM EDT SUN JUL 27 2014

NOTE: "FAIR" INDICATES FEW OR NO CLOUDS BELOW 12,000 FEET WITH
NO SIGNIFICANT WEATHER AND/OR OBSTRUCTIONS TO VISIBILITY.

* THESE REPORTS ARE NOT UNDER NWS QUALITY CONTROL AND MAY NOT
  REPORT WEATHER SUCH AS PRECIPITATION AND FOG.

KYZ079-080-083-085-087-088-110-112-115-119-120-280200
...EASTERN KENTUCKY...

CITY           SKY/WX    TMP DP  RH WIND       PRES   REMARKS
JACKSON        PTCLDY    72  70  93 VRB5      29.80F
LONDON         MOCLDY    75  69  81 S9        29.83F
SOMERSET*      CLOUDY    73  73 100 CALM      29.81F THUNDER
MONTICELLO*    PTCLDY    78  75  90 SW10      29.80F THUNDER
MIDDLESBORO*   TSTM      70  69  97 SW6       29.88F
HARLAN APT*    MOCLDY    72  68  88 MISG      29.88F
MOREHEAD APT*    N/A     75  72  88 W5G12     29.78R FOG
ASHLAND*       MOCLDY    72  64  78 W3        29.72R
$$

KYZ035-036-041-042-044-050-067-078-099-280200
...CENTRAL KENTUCKY...

CITY           SKY/WX    TMP DP  RH WIND       PRES   REMARKS
MT STERLING*   CLEAR     79  73  83 NW9G17    29.78S
FLEMING/MASON* PTCLDY    74  69  85 W8        29.76S
DANVILLE*      CLEAR     79  70  73 W13G18    29.81F
RICHMOND*      CLEAR     81  72  74 W12       29.78F
LEXINGTON      CLEAR     81  71  71 W10       29.79R
FRANKFORT      CLEAR     80  68  66 W6        29.77S
$$

KYZ091>093-OHZ055-061-077-WVZ005-015-034-035-042-280200
...SOUTHERN OHIO/WEST VIRGINIA...

CITY           SKY/WX    TMP DP  RH WIND       PRES   REMARKS
COVINGTON      MOCLDY    71  67  87 W8        29.77S
COLUMBUS       CLOUDY    70  63  78 W5        29.68F
DAYTON         PTCLDY    74  65  73 W12       29.74S
WILMINGTON     PTCLDY    74  67  78 W10       29.73R
HUNTINGTON     TSTM      75  71  87 S9        29.72F
CHARLESTON     MOCLDY    78  70  76 SW12      29.75S
PINEVILLE*     MOCLDY    74  72  96 MISG      29.89F
BECKLEY        CLEAR     72  66  81 SW10      29.86S
BLUEFIELD      MOCLDY    73  63  70 W7        29.91S
$$

VAZ002-007-008-TNZ017-027-036-066-071-280200
...SOUTHWEST VIRGINIA/EAST TENNESSEE...

CITY           SKY/WX    TMP DP  RH WIND       PRES   REMARKS
WISE*          MOCLDY    70  68  94 SW7       29.95R
JONESVILLE*    LGT RAIN  68  68 100 CALM      29.92F
ABINGDON*      CLOUDY    68  67  96 NW8       29.92R
BRISTOL        CLOUDY    70  67  90 SW7       29.92R
KNOXVILLE      CLOUDY    74  69  85 VRB3      29.89R
OAK RIDGE      LGT RAIN  72  71  97 VRB5      29.90R FOG
CROSSVILLE     LGT RAIN  81  71  71 SW8       29.93F
NASHVILLE      MOCLDY    87  76  69 SW8       29.87R HX  97
$$

...KEY TO REMARKS...
VSB - VISIBILITY IN MILES
WCI - WIND CHILL INDEX
HX  - HEAT INDEX

$$



USA.gov is the U.S. government's official web portal to all federal, state and local government web resources and services.